Wind_Speed
3 4 4 4 4 5 5 6 6 7 7 8 9 8 8 7 7 6 6 6 6 6 6 5 5 6 7 6 6 5 4 4 5 4 4 4 4 4 4 5 5 5 5
3 3 3 3 4 5 5 5 5 6 7 7 8 8 8 7 7 7 6 6 6 7 7 6 6 7 6 6 6 6 4 4 4 4 4 4 4 4 4 4 4 5 5
3 4 4 4 4 4 4 4 5 5 6 6 7 8 7 7 8 8 6 6 6 7 7 7 7 7 6 7 7 6 5 4 5 5 4 5 4 4 4 4 5 5 5
4 4 4 4 4 4 4 4 5 5 5 6 6 7 7 7 8 8 7 7 7 7 7 7 7 7 7 7 7 7 7 6 5 5 4 4 4 4 4 4 5 5 5
4 5 5 5 5 5 5 5 5 5 5 6 6 7 7 8 8 8 8 8 7 7 8 7 7 7 7 8 7 7 7 7 6 5 4 4 4 5 4 4 5 6 6
5 6 6 6 6 6 6 5 6 6 6 6 7 7 8 8 8 8 8 8 8 8 8 8 8 8 8 7 7 7 7 7 6 5 5 5 5 5 5 6 6 6 7
7 7 7 7 7 7 7 7 6 6 6 7 7 8 8 9 8 8 8 8 8 8 8 8 7 7 7 7 8 7 7 7 7 6 5 5 5 6 6 7 7 7 7
7 7 7 7 7 7 8 8 7 7 7 7 8 8 9 9 9 9 9 9 9 9 9 8 8 8 8 8 8 8 8 8 8 7 7 7 7 7 6 7 8 8 8
8 7 8 8 7 7 8 8 8 8 8 8 9 9 10 10 9 10 10 10 10 10 10 10 9 9 9 9 9 9 8 9 9 9 8 7 7 7 7 7 8 8 9
9 9 9 9 9 8 8 8 9 9 9 9 10 10 10 10 10 11 11 11 11 10 10 10 10 10 10 9 9 10 10 10 10 9 8 8 9 9 9 9 9 9 9
10 10 10 10 10 10 10 9 10 10 11 10 10 10 11 11 11 11 11 11 11 11 11 10 11 11 11 11 10 10 10 10 10 10 10 10 9 10 10 10 10 10 10
11 11 11 11 11 11 11 11 11 11 11 11 11 11 12 12 13 12 12 12 12 13 12 12 12 12 12 13 13 12 11 11 11 11 11 10 10 10 11 11 11 11 11
12 12 12 12 12 12 12 12 13 12 13 12 13 13 13 14 14 14 14 13 13 14 14 13 13 14 14 14 14 13 13 12 12 12 12 11 11 11 11 11 11 12 12
14 14 14 14 14 13 13 14 14 14 14 14 14 15 15 15 15 15 15 15 15 15 15 15 14 15 15 14 14 14 14 13 13 13 13 13 12 12 12 12 12 12 12
15 15 15 15 16 15 15 15 15 16 16 16 16 16 16 16 17 17 17 17 17 16 16 16 15 14 15 15 15 15 15 15 14 14 14 14 13 13 13 13 14 13 13
16 16 16 17 17 17 17 17 17 17 17 18 18 18 18 18 19 19 19 18 18 18 17 17 16 15 15 16 16 16 16 16 16 16 16 15 15 14 14 14 14 14 14
17 17 18 18 18 18 19 19 18 18 18 18 18 18 19 19 20 20 19 20 19 19 19 19 18 17 17 17 18 17 17 17 17 18 18 17 16 16 15 14 14 15 15
19 19 19 19 19 20 20 20 20 19 19 19 20 20 20 21 21 21 21 21 21 21 21 21 20 19 18 18 19 19 19 19 19 19 19 19 18 18 17 16 16 16 17
20 20 20 20 21 21 21 20 20 20 20 21 22 22 22 22 22 23 23 23 23 23 23 23 22 21 21 21 20 20 20 20 20 20 20 20 20 20 19 19 19 19 19
21 21 21 21 21 22 22 21 21 21 21 23 24 24 24 23 24 24 24 24 25 24 24 24 24 23 23 23 22 22 22 22 22 22 21 21 21 21 21 21 21 21 21
22 23 22 22 22 23 23 23 23 23 23 24 24 25 25 25 25 26 25 25 25 26 25 25 25 24 24 25 24 24 24 24 24 24 24 24 23 23 23 23 23 23 23
23 24 23 23 24 23 23 23 23 24 25 25 26 25 25 26 27 27 27 26 26 26 27 26 26 26 26 26 26 26 26 26 26 26 26 26 26 25 25 26 25 25 24
24 24 24 24 24 24 24 25 25 26 26 26 26 27 28 27 28 29 29 28 27 27 27 27 27 27 28 27 28 28 28 29 28 27 28 27 27 27 27 27 27 27 27
25 25 24 25 25 25 26 27 27 27 27 28 28 28 28 28 29 29 29 29 29 29 28 28 28 27 28 29 29 29 30 30 29 28 29 28 28 27 27 27 27 27 27
26 26 26 26 26 27 27 28 29 28 28 29 29 29 28 28 29 29 29 29 29 29 29 28 28 29 29 30 31 32 31 31 30 29 29 29 29 28 28 28 28 28 27
28 27 27 27 27 27 28 28 29 29 29 29 29 29 29 29 29 29 29 29 29 29 28 29 30 30 31 31 32 32 32 32 32 31 30 31 31 30 30 30 30 30 30
Wind_Direction
39 43 45 37 31 31 36 38 39 39 38 37 35 31 26 27 26 23 17 13 13 10 5 2 353 347 348 347 340 326 309 305 302 296 287 289 284 274 263 263 262 256 260
25 20 20 22 18 21 28 26 30 32 32 29 28 25 22 20 18 12 11 11 10 9 5 3 356 348 352 351 347 340 329 314 307 299 291 281 283 274 268 261 257 259 260
12 2 358 5 6 4 11 6 12 16 13 16 19 19 16 14 10 3 359 359 359 0 359 356 354 351 351 348 346 347 344 331 319 310 294 281 282 274 271 265 264 268 268
354 351 351 346 346 346 350 350 352 356 358 0 2 4 3 2 2 357 355 352 350 350 348 348 347 345 346 345 342 343 346 335 322 313 303 293 286 275 278 275 261 263 267
340 338 336 327 330 336 336 337 339 342 342 342 343 350 353 351 349 347 348 348 347 343 344 342 339 341 341 341 339 340 341 337 323 308 299 290 282 273 271 274 271 261 263
330 324 322 322 327 328 328 326 330 333 333 336 337 340 343 344 342 341 341 344 348 344 340 339 339 341 337 341 339 338 341 336 325 313 301 285 280 276 272 276 275 270 271
324 320 318 318 318 319 324 320 318 321 325 329 330 330 333 338 336 335 335 337 339 337 335 332 334 335 331 334 339 336 336 334 323 316 302 287 280 277 273 273 272 266 270
324 319 317 312 311 312 315 320 319 318 319 321 323 324 326 328 330 329 329 329 330 332 333 330 326 325 325 324 324 326 330 325 316 311 300 287 281 276 278 275 274 270 268
322 312 310 308 308 307 307 310 314 316 317 316 316 318 319 321 323 322 322 323 325 327 328 327 318 317 317 318 319 316 315 318 317 309 303 288 283 277 278 277 275 276 270
313 310 306 304 303 303 304 304 309 309 308 308 310 312 315 317 319 317 316 315 315 317 318 318 315 314 312 313 316 315 312 315 317 312 312 298 286 278 279 279 280 277 276
313 308 306 301 298 298 299 299 304 305 304 302 304 308 311 312 312 311 311 312 312 312 310 310 310 311 312 311 310 311 309 309 312 310 309 302 289 280 277 277 278 277 274
312 308 307 300 295 295 296 295 299 301 303 302 300 302 305 307 310 309 309 307 307 308 306 306 305 306 306 303 303 305 303 303 305 305 306 303 298 287 280 275 274 274 272
311 305 302 298 296 293 293 293 295 295 297 298 297 298 299 301 304 304 304 304 304 305 304 303 304 305 305 304 301 300 299 299 300 299 299 298 298 295 285 280 274 272 271
307 307 301 298 296 294 292 292 291 292 294 294 294 295 296 298 298 299 300 299 298 299 300 298 297 299 299 298 298 296 298 297 297 295 293 295 295 293 289 283 278 276 275
305 305 302 299 296 294 291 290 290 290 291 291 292 294 294 295 295 296 295 296 296 296 297 294 293 294 293 295 296 295 294 295 294 293 292 291 292 288 287 285 281 277 276
305 303 301 300 299 296 292 289 289 290 290 290 290 292 293 295 295 294 293 294 294 294 294 294 290 289 290 291 292 292 292 291 291 292 292 290 289 289 285 284 283 279 276
303 300 299 297 297 295 294 291 290 288 288 289 290 291 293 296 297 295 294 292 292 292 292 293 289 289 289 289 290 290 287 286 286 286 287 287 287 286 285 283 282 282 278
308 302 297 295 295 294 294 293 293 292 289 288 288 290 293 295 296 294 292 290 289 290 290 291 289 288 288 288 287 286 286 285 282 282 283 283 283 284 282 281 280 281 278
308 307 302 298 295 293 291 292 294 293 292 293 290 290 293 293 293 294 290 288 288 289 290 291 291 290 289 289 289 287 286 286 283 281 280 280 280 280 280 280 278 277 278
307 307 304 298 295 292 290 290 292 295 295 294 291 290 292 293 293 292 291 288 287 288 290 290 290 289 288 289 288 287 284 284 283 281 279 278 277 277 277 277 276 275 275
306 305 303 299 295 292 291 291 292 294 294 293 293 292 291 290 289 290 292 290 288 289 288 288 287 287 288 287 287 286 285 283 282 281 279 277 277 276 276 276 276 275 275
305 303 300 299 296 294 293 292 292 293 294 292 292 292 292 290 289 290 291 291 290 289 287 288 285 285 287 287 287 286 285 284 283 282 281 279 277 275 274 275 275 275 275
305 304 302 300 297 295 294 292 292 292 293 294 294 292 291 291 291 290 290 289 288 288 288 287 284 284 284 286 287 287 287 286 283 281 281 280 277 276 275 275 275 274 275
303 303 300 298 297 295 294 293 292 293 294 294 294 295 294 293 292 292 291 289 287 287 286 286 285 285 284 285 287 287 287 286 284 282 281 281 279 275 274 274 274 275 274
300 300 298 295 294 294 293 293 294 293 292 292 292 293 295 295 294 293 292 291 290 288 287 285 284 284 285 286 286 286 285 284 283 281 280 279 278 276 275 275 274 275 275
298 297 295 293 292 292 293 295 296 294 293 292 291 291 293 294 295 295 293 292 291 289 288 287 286 285 284 285 286 286 286 284 282 280 279 278 277 276 275 275 274 273 273
Height
5893 5893 5893 5892 5892 5891 5891 5890 5890 5889 5888 5887 5886 5886 5885 5884 5884 5883 5883 5882 5882 5881 5880 5880 5879 5878 5877 5876 5875 5874 5872 5872 5873 5873 5874 5874 5874 5874 5875 5875 5876 5876 5877
5894 5894 5894 5893 5893 5892 5892 5891 5891 5890 5889 5888 5888 5886 5886 5885 5885 5884 5883 5883 5882 5881 5881 5880 5879 5878 5877 5876 5875 5873 5872 5872 5872 5873 5873 5873 5873 5873 5874 5874 5875 5875 5876
5895 5894 5894 5894 5894 5893 5893 5892 5892 5891 5890 5889 5888 5888 5887 5886 5885 5884 5884 5883 5882 5881 5881 5880 5879 5878 5877 5875 5874 5873 5872 5872 5872 5872 5872 5872 5872 5872 5873 5873 5873 5874 5874
5895 5895 5894 5894 5893 5893 5893 5893 5892 5891 5891 5890 5889 5888 5887 5886 5886 5885 5884 5883 5882 5881 5880 5879 5878 5877 5876 5875 5874 5873 5872 5871 5871 5871 5870 5870 5870 5871 5871 5872 5872 5872 5873
5895 5894 5894 5894 5893 5893 5893 5892 5891 5891 5890 5890 5889 5888 5887 5886 5885 5884 5883 5882 5881 5881 5880 5878 5878 5877 5876 5874 5873 5872 5871 5870 5869 5869 5869 5869 5869 5869 5870 5870 5870 5871 5871
5894 5894 5894 5893 5893 5893 5892 5891 5891 5890 5890 5889 5888 5888 5887 5886 5885 5884 5883 5882 5880 5879 5879 5878 5877 5876 5875 5874 5873 5872 5871 5870 5869 5868 5868 5868 5868 5868 5869 5869 5869 5869 5870
5894 5893 5893 5893 5892 5892 5891 5891 5890 5889 5889 5888 5887 5887 5886 5885 5884 5883 5882 5881 5879 5878 5877 5877 5876 5875 5874 5873 5872 5871 5870 5869 5868 5867 5867 5867 5867 5867 5867 5867 5867 5867 5868
5893 5892 5892 5892 5891 5891 5890 5890 5889 5888 5888 5887 5886 5886 5885 5884 5883 5882 5881 5879 5878 5877 5876 5875 5874 5873 5873 5872 5871 5870 5869 5868 5867 5866 5865 5865 5865 5865 5865 5865 5865 5865 5865
5892 5891 5891 5890 5890 5890 5889 5889 5888 5887 5886 5886 5885 5884 5883 5882 5881 5880 5879 5878 5877 5876 5875 5874 5873 5872 5871 5870 5869 5868 5867 5867 5865 5864 5863 5863 5863 5863 5863 5863 5863 5863 5863
5890 5890 5889 5888 5888 5888 5887 5887 5886 5885 5885 5884 5883 5882 5881 5880 5879 5878 5877 5876 5875 5874 5873 5872 5871 5870 5869 5868 5867 5866 5866 5865 5863 5862 5862 5861 5861 5861 5860 5860 5860 5860 5860
5889 5888 5887 5887 5886 5886 5885 5885 5884 5884 5883 5882 5881 5880 5879 5878 5877 5875 5874 5873 5873 5872 5871 5870 5869 5868 5867 5866 5865 5864 5864 5863 5861 5861 5860 5859 5858 5858 5858 5858 5858 5857 5857
5887 5886 5885 5885 5884 5883 5883 5882 5882 5881 5880 5879 5879 5878 5877 5876 5874 5873 5872 5871 5870 5869 5868 5868 5867 5866 5865 5864 5862 5862 5861 5860 5859 5858 5857 5856 5855 5855 5855 5854 5854 5854 5854
5885 5883 5883 5882 5881 5881 5880 5880 5879 5878 5878 5877 5876 5875 5874 5873 5872 5870 5869 5868 5867 5866 5865 5864 5864 5863 5862 5861 5860 5859 5857 5857 5856 5856 5855 5854 5853 5852 5851 5851 5851 5851 5851
5881 5880 5879 5879 5878 5877 5877 5876 5876 5875 5874 5874 5873 5872 5871 5870 5868 5867 5866 5865 5864 5863 5862 5861 5860 5859 5858 5857 5856 5855 5854 5854 5853 5852 5851 5851 5850 5848 5848 5848 5847 5847 5847
5878 5876 5875 5875 5874 5874 5873 5873 5872 5871 5871 5870 5869 5868 5867 5866 5865 5863 5862 5861 5860 5859 5858 5857 5856 5855 5854 5853 5852 5851 5851 5850 5849 5848 5848 5847 5846 5845 5845 5844 5844 5844 5843
5874 5873 5872 5871 5870 5869 5869 5868 5868 5867 5866 5866 5865 5864 5863 5862 5860 5859 5858 5857 5855 5854 5853 5852 5852 5851 5850 5849 5848 5847 5846 5845 5845 5844 5844 5843 5842 5842 5841 5840 5840 5840 5839
5870 5869 5868 5867 5866 5865 5864 5863 5863 5862 5862 5861 5860 5859 5858 5857 5856 5854 5853 5852 5851 5850 5849 5847 5846 5846 5845 5844 5843 5842 5842 5841 5840 5840 5839 5838 5838 5837 5837 5836 5836 5835 5835
5866 5865 5864 5862 5861 5860 5860 5859 5858 5857 5857 5856 5855 5854 5853 5852 5851 5849 5848 5847 5845 5844 5843 5842 5841 5840 5840 5839 5838 5837 5836 5836 5835 5834 5834 5833 5833 5832 5831 5831 5831 5830 5830
5863 5861 5859 5858 5857 5856 5855 5854 5854 5853 5852 5851 5850 5849 5848 5846 5845 5843 5842 5841 5840 5838 5837 5836 5835 5835 5834 5833 5832 5831 5830 5829 5829 5828 5828 5827 5827 5826 5826 5825 5825 5825 5824
5859 5857 5855 5853 5852 5851 5850 5849 5848 5847 5846 5845 5844 5843 5842 5841 5839 5838 5836 5835 5834 5832 5831 5830 5829 5828 5827 5826 5825 5825 5824 5823 5822 5822 5821 5821 5820 5820 5819 5819 5819 5818 5818
5854 5852 5850 5848 5846 5845 5844 5843 5842 5841 5840 5839 5837 5836 5835 5834 5832 5831 5830 5828 5827 5826 5824 5823 5822 5821 5820 5819 5818 5818 5817 5816 5815 5815 5814 5814 5813 5813 5812 5812 5812 5811 5811
5850 5847 5845 5843 5841 5840 5839 5837 5836 5835 5834 5832 5831 5829 5828 5827 5825 5824 5823 5821 5820 5818 5817 5816 5815 5813 5813 5812 5811 5810 5809 5808 5808 5808 5806 5806 5806 5805 5805 5804 5804 5804 5803
5844 5842 5840 5838 5836 5834 5832 5831 5829 5828 5827 5825 5824 5822 5821 5819 5818 5817 5815 5814 5812 5811 5809 5808 5807 5806 5805 5804 5802 5801 5800 5799 5799 5798 5798 5797 5797 5797 5796 5796 5796 5795 5795
5839 5836 5834 5831 5829 5828 5826 5824 5823 5821 5820 5818 5817 5815 5813 5811 5810 5808 5807 5806 5804 5803 5801 5800 5799 5797 5796 5795 5794 5793 5792 5791 5790 5789 5788 5788 5788 5787 5787 5786 5787 5787 5786
5832 5830 5827 5825 5823 5821 5819 5817 5815 5813 5812 5810 5809 5807 5805 5804 5802 5800 5798 5797 5795 5794 5792 5791 5790 5789 5788 5786 5785 5783 5782 5781 5780 5780 5779 5778 5778 5778 5777 5777 5777 5777 5777
5825 5822 5820 5818 5815 5813 5811 5809 5807 5805 5804 5802 5801 5799 5797 5796 5794 5792 5790 5788 5787 5785 5784 5783 5781 5780 5778 5777 5775 5773 5772 5771 5770 5770 5769 5768 5767 5767 5768 5768 5767 5767 5767